H1 CPF 2 NER 2023 9 8 9 251 01 glonass131 H2 1301901 9131 39155 2023 9 8 0 0 0 2023 9 11 23 45 0 900 1 1 0 0 0 1 H9 10 0 60195 0.00000 0 10798581.119 -22537518.023 4967552.093 10 0 60195 900.00000 0 10860424.483 -22974718.157 1777651.987 10 0 60195 1800.00000 0 10722739.983 -23057089.010 -1446915.708 10 0 60195 2700.00000 0 10435752.924 -22760194.323 -4643242.849 10 0 60195 3600.00000 0 10054364.172 -22072334.036 -7748910.568 10 0 60195 4500.00000 0 9635600.689 -20995182.135 -10703229.480 10 0 60195 5400.00000 0 9235982.254 -19543873.573 -13448448.452 10 0 60195 6300.00000 0 8908918.536 -17746534.752 -15930905.911 10 0 60195 7200.00000 0 8702249.570 -15643276.303 -18102098.862 10 0 60195 8100.00000 0 8656036.499 -13284690.390 -19919646.788 10 0 60195 9000.00000 0 8800698.369 -10729916.235 -21348130.085 10 0 60195 9900.00000 0 9155575.524 -8044356.253 -22359785.787 10 0 60195 10800.00000 0 9727981.252 -5297139.976 -22935046.683 10 0 60195 11700.00000 0 10512781.957 -2558443.414 -23062913.690 10 0 60195 12600.00000 0 11492523.011 103222.805 -22741155.055 10 0 60195 13500.00000 0 12638093.862 2623642.526 -21976329.820 10 0 60195 14400.00000 0 13909902.819 4945330.666 -20783636.696 10 0 60195 15300.00000 0 15259510.282 7019676.399 -19186593.073 10 0 60195 16200.00000 0 16631649.969 8808705.203 -17216552.246 10 0 60195 17100.00000 0 17966551.608 10286388.627 -14912070.002 10 0 60195 18000.00000 0 19202466.309 11439450.138 -12318134.519 10 0 60195 18900.00000 0 20278287.860 12267636.848 -9485275.905 10 0 60195 19800.00000 0 21136159.782 12783449.398 -6468573.778 10 0 60195 20700.00000 0 21723959.127 13011344.845 -3326582.893 10 0 60195 21600.00000 0 21997553.791 12986449.136 -120198.037 10 0 60195 22500.00000 0 21922739.980 12752835.804 3088519.847 10 0 60195 23400.00000 0 21476780.178 12361444.978 6237533.995 10 0 60195 24300.00000 0 20649478.781 11867731.151 9266016.411 10 0 60195 25200.00000 0 19443751.727 11329138.700 12115505.060 10 0 60195 26100.00000 0 17875667.301 10802510.700 14731012.766 10 0 60195 27000.00000 0 15973956.800 10341538.688 17062068.215 10 0 60195 27900.00000 0 13779015.161 9994358.988 19063670.834 10 0 60195 28800.00000 0 11341432.149 9801394.886 20697142.976 10 0 60195 29700.00000 0 8720113.448 9793533.749 21930864.685 10 0 60195 30600.00000 0 5980067.369 9990714.552 22740878.244 10 0 60195 31500.00000 0 3189946.270 10400984.694 23111351.744 10 0 60195 32400.00000 0 419441.727 11020066.078 23034893.063 10 0 60195 33300.00000 0 -2263361.453 11831449.952 22512707.871 10 0 60195 34200.00000 0 -4794565.155 12807018.540 21554597.602 10 0 60195 35100.00000 0 -7116866.782 13908170.086 20178795.844 10 0 60195 36000.00000 0 -9181698.253 15087403.044 18411644.143 10 0 60195 36900.00000 0 -10951006.624 16290295.931 16287111.091 10 0 60195 37800.00000 0 -12398601.906 17457802.296 13846161.384 10 0 60195 38700.00000 0 -13511014.856 18528766.322 11135984.628 10 0 60195 39600.00000 0 -14287827.425 19442554.312 8209096.737 10 0 60195 40500.00000 0 -14741460.415 20141691.262 5122329.788 10 0 60195 41400.00000 0 -14896425.765 20574390.387 1935729.093 10 0 60195 42300.00000 0 -14788073.798 20696866.944 -1288621.121 10 0 60195 43200.00000 0 -14460887.753 20475335.969 -4487819.883 10 0 60195 44100.00000 0 -13966397.850 19887606.507 -7599394.251 10 0 60195 45000.00000 0 -13360804.114 18924201.790 -10562540.471 10 0 60195 45900.00000 0 -12702410.296 17588955.139 -13319334.951 10 0 60195 46800.00000 0 -12048979.809 15899054.042 -15815889.031 10 0 60195 47700.00000 0 -11455128.235 13884528.865 -18003422.618 10 0 60195 48600.00000 0 -10969865.371 11587206.898 -19839233.751 10 0 60195 49500.00000 0 -10634393.192 9059175.666 -21287543.631 10 0 60195 50400.00000 0 -10480254.641 6360820.710 -22320199.683 10 0 60195 51300.00000 0 -10527912.635 3558521.249 -22917222.594 10 0 60195 52200.00000 0 -10785819.595 722101.549 -23067187.006 10 0 60195 53100.00000 0 -11250016.348 -2077854.112 -22767429.238 10 0 60195 54000.00000 0 -11904276.111 -4772709.783 -22024079.320 10 0 60195 54900.00000 0 -12720785.832 -7298396.055 -20851918.288 10 0 60195 55800.00000 0 -13661334.143 -9597829.247 -19274065.317 10 0 60195 56700.00000 0 -14678953.794 -11623031.771 -17321502.626 10 0 60195 57600.00000 0 -15719947.429 -13336867.193 -15032449.149 10 0 60195 58500.00000 0 -16726209.771 -14714320.114 -12451596.790 10 0 60195 59400.00000 0 -17637747.340 -15743270.614 -9629225.513 10 0 60195 60300.00000 0 -18395289.069 -16424734.335 -6620215.503 10 0 60195 61200.00000 0 -18942878.001 -16772561.636 -3482976.390 10 0 60195 62100.00000 0 -19230335.669 -16812611.763 -278314.669 10 0 60195 63000.00000 0 -19215496.610 -16581439.484 2931738.757 10 0 60195 63900.00000 0 -18866120.492 -16124551.487 6085118.586 10 0 60195 64800.00000 0 -18161403.072 -15494307.150 9120910.469 10 0 60195 65700.00000 0 -17093024.011 -14747552.374 11980510.024 10 0 60195 66600.00000 0 -15665688.699 -13943085.593 14608734.553 10 0 60195 67500.00000 0 -13897141.997 -13139061.379 16954867.807 10 0 60195 68400.00000 0 -11817653.183 -12390439.120 18973619.484 10 0 60195 69300.00000 0 -9468992.736 -11746582.067 20625982.833 10 0 60195 70200.00000 0 -6902941.971 -11249105.620 21879975.506 10 0 60195 71100.00000 0 -4179395.163 -10930063.571 22711250.810 10 0 60195 72000.00000 0 -1364130.250 -10810547.267 23103568.460 10 0 60195 72900.00000 0 1473662.515 -10899756.115 23049116.116 10 0 60195 73800.00000 0 4263994.591 -11194578.832 22548675.217 10 0 60195 74700.00000 0 6938730.345 -11679704.309 21611626.929 10 0 60195 75600.00000 0 9434167.828 -12328259.429 20255796.498 10 0 60195 76500.00000 0 11693443.743 -13102949.562 18507136.920 10 0 60195 77400.00000 0 13668663.485 -13957656.565 16399255.592 10 0 60195 78300.00000 0 15322667.652 -14839429.715 13972790.550 10 0 60195 79200.00000 0 16630360.637 -15690787.957 11274645.859 10 0 60195 80100.00000 0 17579544.422 -16452237.953 8357098.895 10 0 60195 81000.00000 0 18171220.975 -17064902.238 5276795.243 10 0 60195 81900.00000 0 18419348.840 -17473146.074 2093649.806 10 0 60195 82800.00000 0 18350062.606 -17627090.520 -1130324.572 10 0 60195 83700.00000 0 18000387.134 -17484903.149 -4332237.509 10 0 60195 84600.00000 0 17416500.473 -17014766.615 -7449565.407 10 0 60195 85500.00000 0 16651619.281 -16196438.582 -10421393.418 10 0 60196 0.00000 0 15763597.497 -15022334.026 -13189628.330 10 0 60196 900.00000 0 14812341.196 -13498080.630 -15700157.690 10 0 60196 1800.00000 0 13857152.540 -11642523.291 -17903926.522 10 0 60196 2700.00000 0 12954116.073 -9487173.976 -19757913.529 10 0 60196 3600.00000 0 12153641.373 -7075130.945 -21225982.421 10 0 60196 4500.00000 0 11498267.401 -4459512.322 -22279592.274 10 0 60196 5400.00000 0 11020822.644 -1701470.582 -22898352.479 10 0 60196 6300.00000 0 10743019.194 1132127.762 -23070411.733 10 0 60196 7200.00000 0 10674539.781 3971258.921 -22792674.318 10 0 60196 8100.00000 0 10812655.085 6745427.102 -22070840.702 10 0 60196 9000.00000 0 11142385.721 9386365.505 -20919273.309 10 0 60196 9900.00000 0 11637199.825 11830640.193 -19360691.798 10 0 60196 10800.00000 0 12260214.400 14022048.838 -17425705.669 10 0 60196 11700.00000 0 12965847.385 15913715.655 -15152195.037 10 0 60196 12600.00000 0 13701848.674 17469797.175 -12584553.266 10 0 60196 13500.00000 0 14411622.759 18666730.336 -9772807.594 10 0 60196 14400.00000 0 15036744.009 19493973.889 -6771635.925 10 0 60196 15300.00000 0 15519558.077 19954215.410 -3639299.683 10 0 60196 16200.00000 0 15805759.976 20063038.579 -436513.829 10 0 60196 17100.00000 0 15846840.978 19848067.605 2774724.091 10 0 60196 18000.00000 0 15602302.461 19347627.134 5932323.517 10 0 60196 18900.00000 0 15041544.949 18608975.571 8975286.909 10 0 60196 19800.00000 0 14145354.387 17686186.854 11844870.488 10 0 60196 20700.00000 0 12906924.424 16637769.623 14485698.718 10 0 60196 21600.00000 0 11332372.622 15524122.940 16846812.779 10 0 60196 22500.00000 0 9440729.099 14404933.888 18882634.681 10 0 60196 23400.00000 0 7263397.494 13336624.332 20553830.242 10 0 60196 24300.00000 0 4843109.341 12369951.816 21828056.044 10 0 60196 25200.00000 0 2232413.251 11547863.151 22680577.339 10 0 60196 26100.00000 0 -508240.976 10903688.995 23094745.971 10 0 60196 27000.00000 0 -3312746.890 10459753.997 23062329.441 10 0 60196 27900.00000 0 -6111824.757 10226460.417 22583684.534 10 0 60196 28800.00000 0 -8835643.856 10201884.115 21667771.213 10 0 60196 29700.00000 0 -11416477.682 10371901.120 20332004.940 10 0 60196 30600.00000 0 -13791284.004 10710841.361 18601948.212 10 0 60196 31500.00000 0 -15904103.795 11182644.423 16510844.848 10 0 60196 32400.00000 0 -17708179.702 11742471.123 14099003.459 10 0 60196 33300.00000 0 -19167705.257 12338705.284 11413039.536 10 0 60196 34200.00000 0 -20259130.607 12915263.002 8504988.733 10 0 60196 35100.00000 0 -20971968.393 13414112.854 5431306.898 10 0 60196 36000.00000 0 -21309064.044 13777900.524 2251775.318 10 0 60196 36900.00000 0 -21286317.238 13952565.867 -971667.636 10 0 60196 37800.00000 0 -20931864.736 13889839.695 -4176145.139 10 0 60196 38700.00000 0 -20284758.130 13549511.941 -7299085.713 10 0 60196 39600.00000 0 -19393192.153 12901372.050 -10279465.997 10 0 60196 40500.00000 0 -18312359.058 11926736.189 -13059025.961 10 0 60196 41400.00000 0 -17102021.127 10619493.600 -15583430.413 10 0 60196 42300.00000 0 -15823905.884 8986625.227 -17803351.720 10 0 60196 43200.00000 0 -14539036.362 7048170.783 -19675450.592 10 0 60196 44100.00000 0 -13305111.477 4836644.424 -21163234.192 10 0 60196 45000.00000 0 -12174049.135 2395923.250 -22237773.799 10 0 60196 45900.00000 0 -11189797.197 -220344.388 -22878267.670 10 0 60196 46800.00000 0 -10386505.310 -2950743.220 -23072438.363 10 0 60196 47700.00000 0 -9787134.540 -5728422.930 -22816757.573 10 0 60196 48600.00000 0 -9402562.387 -8483658.902 -22116495.357 10 0 60196 49500.00000 0 -9231219.128 -11146533.951 -20985594.371 10 0 60196 50400.00000 0 -9259268.442 -13649628.514 -19446373.347 10 0 60196 51300.00000 0 -9461322.023 -15930607.188 -17529067.430 10 0 60196 52200.00000 0 -9801655.222 -17934594.485 -15271216.099 10 0 60196 53100.00000 0 -10235869.829 -19616242.143 -12716912.221 10 0 60196 54000.00000 0 -10712931.595 -20941403.871 -9915928.276 10 0 60196 54900.00000 0 -11177494.823 -21888350.253 -6922737.810 10 0 60196 55800.00000 0 -11572414.895 -22448476.003 -3795451.949 10 0 60196 56700.00000 0 -11841342.391 -22626473.132 -594692.003 10 0 60196 57600.00000 0 -11931289.655 -22439965.700 2617579.963 10 0 60196 58500.00000 0 -11795062.460 -21918624.045 5779250.313 10 0 60196 59400.00000 0 -11393455.530 -21102797.580 8829240.546 10 0 60196 60300.00000 0 -10697120.877 -20041724.683 11708669.759 10 0 60196 61200.00000 0 -9688031.694 -18791395.127 14361971.867 10 0 60196 62100.00000 0 -8360481.326 -17412154.186 16737947.742 10 0 60196 63000.00000 0 -6721575.859 -15966147.623 18790733.858 10 0 60196 63900.00000 0 -4791199.475 -14514712.801 20480670.599 10 0 60196 64800.00000 0 -2601452.959 -13115822.981 21775055.229 10 0 60196 65700.00000 0 -195586.930 -11821689.529 22648766.430 10 0 60196 66600.00000 0 2373528.323 -10676620.273 23084749.334 10 0 60196 67500.00000 0 5045335.830 -9715221.963 23074352.113 10 0 60196 68400.00000 0 7753850.843 -8961021.013 22617507.397 10 0 60196 69300.00000 0 10430155.191 -8425560.010 21722754.097 10 0 60196 70200.00000 0 13005026.617 -8108008.352 20407097.718 10 0 60196 71100.00000 0 15411596.434 -7995304.579 18695709.743 10 0 60196 72000.00000 0 17587926.725 -8062826.219 16621469.535 10 0 60196 72900.00000 0 19479400.683 -8275561.076 14224355.024 10 0 60196 73800.00000 0 21040826.356 -8589732.763 11550691.465 10 0 60196 74700.00000 0 22238164.931 -8954813.716 8652270.691 10 0 60196 75600.00000 0 23049809.651 -9315841.894 5585356.291 10 0 60196 76500.00000 0 23467359.638 -9615943.638 2409593.027 10 0 60196 77400.00000 0 23495853.986 -9798955.351 -813158.450 10 0 60196 78300.00000 0 23153454.251 -9812031.516 -4020038.311 10 0 60196 79200.00000 0 22470587.282 -9608126.251 -7148430.732 10 0 60196 80100.00000 0 21488583.714 -9148240.357 -10137207.326 10 0 60196 81000.00000 0 20257869.626 -8403335.449 -12927944.340 10 0 60196 81900.00000 0 18835788.527 -7355830.891 -15466087.417 10 0 60196 82800.00000 0 17284147.145 -6000617.337 -17702038.788 10 0 60196 83700.00000 0 15666590.599 -4345541.630 -19592143.599 10 0 60196 84600.00000 0 14045919.842 -2411340.969 -21099554.520 10 0 60196 85500.00000 0 12481466.590 -231028.245 -22194956.702 10 0 60197 0.00000 0 11026638.072 2151245.514 -22857138.473 10 0 60197 900.00000 0 9726735.216 4681804.614 -23073397.187 10 0 60197 1800.00000 0 8617138.194 7299466.267 -22839772.247 10 0 60197 2700.00000 0 7721932.306 9937880.874 -22161103.223 10 0 60197 3600.00000 0 7053032.372 12528092.916 -21050912.496 10 0 60197 4500.00000 0 6609839.379 15001215.830 -19531116.936 10 0 60197 5400.00000 0 6379441.058 17291108.614 -17631575.984 10 0 60197 6300.00000 0 6337344.885 19336942.676 -15389486.735 10 0 60197 7200.00000 0 6448709.481 21085552.629 -12848639.433 10 0 60197 8100.00000 0 6670019.678 22493474.486 -10058549.306 10 0 60197 9000.00000 0 6951132.258 23528588.232 -7073482.710 10 0 60197 9900.00000 0 7237604.339 24171298.701 -3951397.356 10 0 60197 10800.00000 0 7473205.168 24415208.188 -752817.578 10 0 60197 11700.00000 0 7602505.091 24267255.461 2460333.502 10 0 60197 12600.00000 0 7573432.876 23747317.927 5625922.647 10 0 60197 13500.00000 0 7339694.514 22887295.715 8682793.790 10 0 60197 14400.00000 0 6862952.818 21729717.496 11571932.134 10 0 60197 15300.00000 0 6114677.448 20325927.085 14237584.028 10 0 60197 16200.00000 0 5077588.731 18733926.615 16628312.721 10 0 60197 17100.00000 0 3746635.462 17015965.568 18697971.513 10 0 60197 18000.00000 0 2129465.814 15235974.905 20406577.354 10 0 60197 18900.00000 0 246371.070 13456951.428 21721069.815 10 0 60197 19800.00000 0 -1870296.944 11738399.272 22615942.231 10 0 60197 20700.00000 0 -4177212.598 10133933.050 23073733.820 10 0 60197 21600.00000 0 -6621624.976 8689140.636 23085373.749 10 0 60197 22500.00000 0 -9143307.070 7439793.240 22650370.315 10 0 60197 23400.00000 0 -11676828.002 6410476.667 21776840.681 10 0 60197 24300.00000 0 -14154057.178 5613700.827 20481379.137 10 0 60197 25200.00000 0 -16506799.116 5049525.332 18788764.359 10 0 60197 26100.00000 0 -18669451.503 4705718.148 16731508.952 10 0 60197 27000.00000 0 -20581577.046 4558442.279 14349257.420 10 0 60197 27900.00000 0 -22190282.203 4573443.521 11688041.677 10 0 60197 28800.00000 0 -23452302.731 4707690.954 8799406.399 10 0 60197 29700.00000 0 -24335707.310 4911402.347 5739419.441 10 0 60197 30600.00000 0 -24821145.758 5130369.557 2567585.541 10 0 60197 31500.00000 0 -24902587.008 5308485.382 -654315.784 10 0 60197 32400.00000 0 -24587513.440 5390363.823 -3863445.003 10 0 60197 33300.00000 0 -23896561.372 5323940.792 -6997145.059 10 0 60197 34200.00000 0 -22862621.407 5062942.433 -9994185.443 10 0 60197 35100.00000 0 -21529435.951 4569113.355 -12795981.330 10 0 60197 36000.00000 0 -19949753.234 3814107.181 -15347761.549 10 0 60197 36900.00000 0 -18183116.691 2780956.274 -17599660.179 10 0 60197 37800.00000 0 -16293384.496 1465055.858 -19507708.361 10 0 60197 38700.00000 0 -14346085.730 -125381.067 -21034705.357 10 0 60197 39600.00000 0 -12405726.524 -1969418.479 -22150950.751 10 0 60197 40500.00000 0 -10533161.323 -4034038.251 -22834823.077 10 0 60197 41400.00000 0 -8783140.970 -6275300.101 -23073193.804 10 0 60197 42300.00000 0 -7202141.180 -8639971.122 -22861669.314 10 0 60197 43200.00000 0 -5826562.198 -11067555.446 -22204657.410 10 0 60197 44100.00000 0 -4681373.906 -13492637.889 -21115258.595 10 0 60197 45000.00000 0 -3779261.216 -15847442.368 -19614986.016 10 0 60197 45900.00000 0 -3120302.770 -18064497.410 -17733321.360 10 0 60197 46800.00000 0 -2692193.261 -20079297.074 -15507117.164 10 0 60197 47700.00000 0 -2470996.572 -21832846.442 -12979858.811 10 0 60197 48600.00000 0 -2422394.743 -23273986.289 -10200802.031 10 0 60197 49500.00000 0 -2503377.196 -24361401.353 -7224003.791 10 0 60197 50400.00000 0 -2664296.654 -25065230.312 -4107266.246 10 0 60197 51300.00000 0 -2851203.398 -25368212.554 -911014.694 10 0 60197 52200.00000 0 -3008358.507 -25266326.310 2302868.683 10 0 60197 53100.00000 0 -3080819.952 -24768893.886 5472233.002 10 0 60197 54000.00000 0 -3016993.013 -23898151.727 8535846.552 10 0 60197 54900.00000 0 -2771038.563 -22688304.883 11434562.557 10 0 60197 55800.00000 0 -2305039.069 -21184106.369 14112441.689 10 0 60197 56700.00000 0 -1590832.518 -19439020.919 16517811.420 10 0 60197 57600.00000 0 -611438.252 -17513049.209 18604243.630 10 0 60197 58500.00000 0 637984.540 -15470302.012 20331433.460 10 0 60197 59400.00000 0 2149685.926 -13376423.516 21665964.235 10 0 60197 60300.00000 0 3903401.731 -11295968.869 22581945.164 10 0 60197 61200.00000 0 5866955.952 -9289842.761 23061510.530 10 0 60197 62100.00000 0 7997366.431 -7412903.387 23095171.229 10 0 60197 63000.00000 0 10242410.802 -5711829.591 22682011.689 10 0 60197 63900.00000 0 12542590.854 -4223338.702 21829727.533 10 0 60197 64800.00000 0 14833416.944 -2972828.642 20554501.793 10 0 60197 65700.00000 0 17047920.540 -1973501.024 18880720.033 10 0 60197 66600.00000 0 19119292.700 -1226002.643 16840527.517 10 0 60197 67500.00000 0 20983540.276 -718601.619 14473234.428 10 0 60197 68400.00000 0 22582049.696 -427892.403 11824578.113 10 0 60197 69300.00000 0 23863950.871 -320001.636 8945854.476 10 0 60197 70200.00000 0 24788181.071 -352245.472 5892933.636 10 0 60197 71100.00000 0 25325160.225 -475169.314 2725177.916 10 0 60197 72000.00000 0 25458004.803 -634883.937 -495717.058 10 0 60197 72900.00000 0 25183226.590 -775598.462 -3706935.082 10 0 60197 73800.00000 0 24510884.434 -842241.386 -6845781.076 10 0 60197 74700.00000 0 23464180.548 -783056.321 -9850925.676 10 0 60197 75600.00000 0 22078517.053 -552059.576 -12663626.189 10 0 60197 76500.00000 0 20400052.037 -111252.334 -15228897.690 10 0 60197 77400.00000 0 18483816.320 567509.403 -17496608.939 10 0 60197 78300.00000 0 16391471.356 1501069.037 -19422479.653 10 0 60197 79200.00000 0 14188804.246 2694011.210 -20968957.988 10 0 60197 80100.00000 0 11943067.096 4138233.256 -22105959.967 10 0 60197 81000.00000 0 9720274.348 5813065.188 -22811455.981 10 0 60197 81900.00000 0 7582572.975 7685933.235 -23071893.082 10 0 60197 82800.00000 0 5585796.724 9713538.453 -22882445.519 10 0 60197 83700.00000 0 3777306.959 11843499.894 -22247089.877 10 0 60197 84600.00000 0 2194209.720 14016392.138 -21178504.882 10 0 60197 85500.00000 0 862021.957 16168090.493 -19697799.584 10 0 60198 0.00000 0 -206159.635 18232324.382 -17834077.256 10 0 60198 900.00000 0 -1009956.015 20143332.441 -15623844.215 10 0 60198 1800.00000 0 -1561459.095 21838505.297 -13110279.359 10 0 60198 2700.00000 0 -1884456.812 23260909.555 -10342376.718 10 0 60198 3600.00000 0 -2013164.478 24361585.628 -7373981.269 10 0 60198 4500.00000 0 -1990519.352 25101525.946 -4262736.684 10 0 60198 5400.00000 0 -1866112.483 25453252.531 -1068966.023 10 0 60198 6300.00000 0 -1693846.485 25401930.135 2145492.858 10 0 60198 7200.00000 0 -1529418.709 24945970.592 5318474.906 10 0 60198 8100.00000 0 -1427735.855 24097105.147 8388676.256 10 0 60198 9000.00000 0 -1440368.269 22879923.368 11296821.545 10 0 60198 9900.00000 0 -1613150.021 21330898.985 13986789.010 10 0 60198 10800.00000 0 -1984024.387 19496943.681 16406673.358 10 0 60198 11700.00000 0 -2581224.027 17433548.763 18509767.803 10 0 60198 12600.00000 0 -3421861.301 15202591.033 20255448.120 10 0 60198 13500.00000 0 -4510987.422 12869892.449 21609943.493 10 0 60198 14400.00000 0 -5841160.165 10502632.827 22546980.739 10 0 60198 15300.00000 0 -7392539.359 8166720.675 23048290.524 10 0 60198 16200.00000 0 -9133508.103 5924228.903 23103966.325 10 0 60198 17100.00000 0 -11021796.439 3830999.690 22712669.053 10 0 60198 18000.00000 0 -13006063.736 1934516.302 21881672.592 10 0 60198 18900.00000 0 -15027877.149 272129.189 20626747.938 10 0 60198 19800.00000 0 -17024006.948 -1130290.212 18971886.178 10 0 60198 20700.00000 0 -18928945.739 -2259211.547 16948863.299 10 0 60198 21600.00000 0 -20677548.584 -3113786.600 14596652.702 10 0 60198 22500.00000 0 -22207684.880 -3705653.727 11960694.248 10 0 60198 23400.00000 0 -23462791.226 -4058212.348 9092031.792 10 0 60198 24300.00000 0 -24394217.432 -4205396.543 6046334.193 10 0 60198 25200.00000 0 -24963265.534 -4189998.371 2882817.683 10 0 60198 26100.00000 0 -25142833.641 -4061611.148 -336909.720 10 0 60198 27000.00000 0 -24918592.707 -3874279.929 -3550058.808 10 0 60198 27900.00000 0 -24289643.794 -3683959.702 -6693900.045 10 0 60198 28800.00000 0 -23268625.582 -3545890.865 -9707008.605 10 0 60198 29700.00000 0 -21881265.647 -3512005.706 -12530487.113 10 0 60198 30600.00000 0 -20165393.167 -3628478.713 -15109139.770 10 0 60198 31500.00000 0 -18169454.358 -3933527.566 -17392572.537 10 0 60198 32400.00000 0 -15950593.598 -4455560.773 -19336195.767 10 0 60198 33300.00000 0 -13572382.112 -5211752.777 -20902108.024 10 0 60198 34200.00000 0 -11102291.257 -6207108.561 -22059842.684 10 0 60198 35100.00000 0 -8609018.234 -7434058.296 -22786962.273 10 0 60198 36000.00000 0 -6159777.872 -8872599.437 -23069489.069 10 0 60198 36900.00000 0 -3817675.131 -10490979.849 -22902164.254 10 0 60198 37800.00000 0 -1639268.712 -12246892.299 -22288531.760 10 0 60198 38700.00000 0 327572.689 -14089128.764 -21240846.681 10 0 60198 39600.00000 0 2045433.074 -15959623.649 -19779811.804 10 0 60198 40500.00000 0 3488659.194 -17795798.783 -17934149.216 10 0 60198 41400.00000 0 4644166.031 -19533110.804 -15740017.146 10 0 60198 42300.00000 0 5511707.328 -21107693.431 -13240285.069 10 0 60198 43200.00000 0 6103603.552 -22458983.837 -10483682.661 10 0 60198 44100.00000 0 6443942.331 -23532223.526 -7523840.284 10 0 60198 45000.00000 0 6567288.340 -24280729.979 -4418240.560 10 0 60198 45900.00000 0 6516959.729 -24667845.407 -1227101.838 10 0 60198 46800.00000 0 6342945.753 -24668482.841 1987784.703 10 0 60198 47700.00000 0 6099554.612 -24270206.774 5164242.062 10 0 60198 48600.00000 0 5842891.044 -23473805.026 8240896.303 10 0 60198 49500.00000 0 5628269.644 -22293329.531 11158345.413 10 0 60198 50400.00000 0 5507671.910 -20755605.458 13860286.959 10 0 60198 51300.00000 0 5527352.747 -18899229.676 16294584.490 10 0 60198 52200.00000 0 5725695.590 -16773100.071 18414253.948 10 0 60198 53100.00000 0 6131404.973 -14434536.031 20178352.928 10 0 60198 54000.00000 0 6762111.428 -11947066.652 21552757.421 10 0 60198 54900.00000 0 7623446.911 -9377976.358 22510812.551 10 0 60198 55800.00000 0 8708629.908 -6795707.332 23033845.826 10 0 60198 56700.00000 0 9998578.875 -4267223.887 23111533.526 10 0 60198 57600.00000 0 11462551.336 -1855445.569 22742113.054 10 0 60198 58500.00000 0 13059284.649 383146.605 21932436.369 10 0 60198 59400.00000 0 14738593.883 2400633.004 20697862.074 10 0 60198 60300.00000 0 16443363.325 4159419.991 19061986.252 10 0 60198 61200.00000 0 18111851.326 5633572.970 17056214.917 10 0 60198 62100.00000 0 19680214.618 6809661.762 14719183.802 10 0 60198 63000.00000 0 21085148.075 7687081.909 12096034.174 10 0 60198 63900.00000 0 22266529.960 8277837.015 9237556.476 10 0 60198 64800.00000 0 23169961.311 8605789.773 6199216.649 10 0 60198 65700.00000 0 23749091.394 8705411.921 3040082.886 10 0 60198 66600.00000 0 23967629.204 8620084.956 -178326.642 10 0 60198 67500.00000 0 23800953.514 8400023.264 -3393252.219 10 0 60198 68400.00000 0 23237250.630 8099908.079 -6541932.520 10 0 60198 69300.00000 0 22278128.905 7776333.877 -9562850.026 10 0 60198 70200.00000 0 20938681.607 7485177.485 -12396955.442 10 0 60198 71100.00000 0 19246993.593 7279004.026 -14988844.793 10 0 60198 72000.00000 0 17243111.527 7204622.449 -17287863.812 10 0 60198 72900.00000 0 14977520.832 7300897.049 -19249115.894 10 0 60198 73800.00000 0 12509193.937 7596910.082 -20834352.248 10 0 60198 74700.00000 0 9903293.053 8110555.167 -22012725.654 10 0 60198 75600.00000 0 7228625.349 8847622.141 -22761392.624 10 0 60198 76500.00000 0 4554958.693 9801412.462 -23065952.272 10 0 60198 77400.00000 0 1950311.685 10952901.102 -22920714.030 10 0 60198 78300.00000 0 -521667.942 12271437.171 -22328790.128 10 0 60198 79200.00000 0 -2804126.926 13715952.411 -21302012.558 10 0 60198 80100.00000 0 -4849131.590 15236625.062 -19860677.899 10 0 60198 81000.00000 0 -6619407.332 16776927.500 -18033126.795 10 0 60198 81900.00000 0 -8089622.289 18275970.160 -15855168.113 10 0 60198 82800.00000 0 -9247164.543 19671042.151 -13369360.652 10 0 60198 83700.00000 0 -10092383.911 20900241.324 -10624167.894 10 0 60198 84600.00000 0 -10638291.877 21905083.325 -7673003.368 10 0 60198 85500.00000 0 -10909735.849 22632980.692 -4573186.107 99